Weather History for West Palm Beach, FL

Change the Weather History Date:

Tuesday, August 19, 2014

  Actual Average Record
Temperature  
Mean Temperature 85 °F 83 °F  
Max Temperature 92 °F 90 °F 97 °F (1938)
Min Temperature 78 °F 76 °F 69 °F (1918)
Degree Days  
Heating Degree Days 0 0  
Month to date heating degree days 0 0  
Since 1 June heating degree days 0 0  
Since 1 July heating degree days 0 0  
Cooling Degree Days 20 18  
Month to date cooling degree days 360 342  
Year to date cooling degree days 2764 2490  
Since 1 June cooling degree days 1412 1381  
Growing Degree Days 34 (Base 50)    
Moisture  
Dew Point 75 °F    
Average Humidity 73    
Maximum Humidity 94    
Minimum Humidity 52    
Precipitation  
Precipitation 0.00 in 0.26 in 4.54 in (2008)
Month to date precipitation 9.37 4.68  
Year to date precipitation 42.80 37.45  
Snow  
Snow 0.00 in - - ()
Month to date snowfall 0.0  
Since 1 June snowfall 0.0  
Since 1 July snowfall 0.0  
Snow Depth 0.00 in    
Sea Level Pressure  
Sea Level Pressure 30.00 in    
Wind  
Wind Speed 6 mph (SSE)    
Max Wind Speed 14 mph    
Max Gust Speed 17 mph    
Visibility 10 miles    
Events      
T = Trace of Precipitation, MM = Missing Value Source: NWS Daily Summary

Daily Weather History Graph

Daily Weather History Graph

Search for Another Location

Airport:

Trip Planner

Search our weather history database for the weather conditions in past years. The results will help you decide how hot, cold, wet, or windy it might be!

Date:

Astronomy

Aug. 19, 2014 Rise Set
Actual Time 6:54 AM EDT 7:53 PM EDT
Civil Twilight 6:30 AM EDT 8:17 PM EDT
Nautical Twilight 6:01 AM EDT 8:45 PM EDT
Astronomical Twilight 5:32 AM EDT 9:14 PM EDT
Moon 1:54 AM EDT (8/19) 3:38 PM EDT (8/19)
Length of Visible Light 13h 47m
Length of Day
12h 59m
Waning Crescent, 29% of the Moon is Illuminated
Aug 19
Waning Crescent
Aug 25
New
Sep 2
First Quarter
Sep 8
Full
Sep 15
Last Quarter

Hourly Weather History & Observations

Time (EDT) Temp. Heat Index Dew Point Humidity Pressure Visibility Wind Dir Wind Speed Gust Speed Precip Events Conditions
12:53 AM 82.9 °F 90.8 °F 75.9 °F 79% 30.01 in 10.0 mi SW 4.6 mph - N/A   Partly Cloudy
1:53 AM 82.0 °F 89.4 °F 75.9 °F 82% 30.00 in 10.0 mi SSW 4.6 mph - N/A   Partly Cloudy
2:53 AM 80.1 °F 85.4 °F 75.9 °F 87% 29.99 in 10.0 mi Calm Calm - N/A   Partly Cloudy
3:53 AM 81.0 °F 87.3 °F 75.9 °F 85% 29.97 in 10.0 mi Calm Calm - N/A   Scattered Clouds
4:53 AM 79.0 °F - 75.9 °F 90% 29.98 in 10.0 mi WSW 4.6 mph - N/A   Partly Cloudy
5:53 AM 79.0 °F - 75.9 °F 90% 29.99 in 10.0 mi Calm Calm - N/A   Partly Cloudy
6:53 AM 79.0 °F - 75.9 °F 90% 30.01 in 10.0 mi Calm Calm - N/A   Mostly Cloudy
7:53 AM 81.0 °F 88.6 °F 78.1 °F 91% 30.02 in 10.0 mi Calm Calm - N/A   Scattered Clouds
8:53 AM 84.0 °F 92.6 °F 75.9 °F 76% 30.04 in 10.0 mi West 3.5 mph - N/A   Scattered Clouds
9:53 AM 87.1 °F 95.4 °F 73.9 °F 65% 30.04 in 10.0 mi West 5.8 mph - N/A   Scattered Clouds
10:53 AM 90.0 °F 99.0 °F 73.9 °F 59% 30.04 in 10.0 mi Variable 5.8 mph - N/A   Scattered Clouds
11:53 AM 90.0 °F 97.9 °F 73.0 °F 57% 30.04 in 10.0 mi Variable 5.8 mph - N/A   Scattered Clouds
12:53 PM 90.0 °F 99.0 °F 73.9 °F 59% 30.03 in 10.0 mi East 9.2 mph - N/A   Mostly Cloudy
1:53 PM 91.0 °F 100.4 °F 73.9 °F 57% 30.01 in 10.0 mi ESE 8.1 mph - N/A   Mostly Cloudy
2:53 PM 91.0 °F 97.6 °F 71.1 °F 52% 29.99 in 10.0 mi SE 11.5 mph - N/A   Mostly Cloudy
3:53 PM 91.9 °F 99.5 °F 72.0 °F 52% 29.98 in 10.0 mi ESE 11.5 mph - N/A   Scattered Clouds
4:53 PM 91.0 °F 99.3 °F 73.0 °F 55% 29.96 in 10.0 mi ESE 12.7 mph - N/A   Scattered Clouds
5:53 PM 89.1 °F 98.0 °F 73.9 °F 61% 29.97 in 10.0 mi ESE 10.4 mph - N/A   Scattered Clouds
6:53 PM 88.0 °F 97.5 °F 75.0 °F 65% 29.97 in 10.0 mi SE 10.4 mph - N/A   Scattered Clouds
7:53 PM 87.1 °F 96.3 °F 75.0 °F 67% 29.99 in 10.0 mi SE 10.4 mph - N/A   Scattered Clouds
8:53 PM 86.0 °F 95.1 °F 75.0 °F 70% 30.00 in 10.0 mi SE 9.2 mph - N/A   Scattered Clouds
9:53 PM 84.9 °F 93.3 °F 75.0 °F 72% 30.01 in 10.0 mi SSE 5.8 mph - N/A   Scattered Clouds
10:53 PM 84.9 °F 93.3 °F 75.0 °F 72% 30.01 in 10.0 mi SSE 8.1 mph - N/A   Partly Cloudy
11:53 PM 84.0 °F 92.6 °F 75.9 °F 76% 30.03 in 10.0 mi SSW 5.8 mph - N/A   Scattered Clouds